Regional Weather Roundup
Issued by NWS Kansas City/Pleasant Hill, MO

Home | Current Version | Previous Version | Graphics & Text | Print | Product List | Glossary Off
Versions: 1 2 3 4 5 6 7 8 9 10 11 12 13 14 15 16 17 18 19 20 21 22 23 24 25 26 27 28 29 30 31 32 33 34 35 36 37 38 39 40 41 42 43 44 45 46 47 48 49 50

000
ASUS43 KEAX 270111
RWREAX

WEATHER ROUNDUP FOR EASTERN KANSAS AND NORTHWEST MISSOURI
NATIONAL WEATHER SERVICE KANSAS CITY/PLEASANT HILL MO
800 PM CDT THU MAR 26 2015

KSZ040-057-103>105-MOZ028-029-037-043-270200-
...KANSAS CITY METROPOLITAN AREA...

CITY           SKY/WX    TMP DP  RH WIND       PRES   REMARKS
K.C. INTL      CLOUDY    45  29  53 N8        30.09R
K.C. DOWNTOWN  CLOUDY    49  27  42 N6        30.07R
LEES SUMMIT    CLOUDY    48  26  42 N5        30.06S
OLATHE - IXD   CLOUDY    45  29  53 N3        30.08R
OLATHE - OJC   CLOUDY    48  26  42 NW3       30.06S
LAWRENCE       CLOUDY    47  32  56 NE5       30.07R

$$

MOZ001>008-011>017-020>025-030>033-038>040-044>046-053-054-270200-
...NORTHERN AND CENTRAL MISSOURI...

CITY           SKY/WX    TMP DP  RH WIND       PRES   REMARKS
ST. JOSEPH     LGT RAIN  45  31  58 N9G28     30.11R
MOSBY          CLOUDY    46  30  53 NW5       30.09R
WARRENSBURG    MOCLDY    45  28  53 N3        30.07S
WHITEMAN AFB   MOCLDY    46  30  52 N2        30.05F
CLINTON        PTCLDY    45  32  61 CALM      30.07F
SEDALIA        PTCLDY    45  31  58 NW3       30.08S
WARSAW         NOT AVBL
MARSHALL       MOCLDY    48  30  49 CALM      30.08S
CHILLICOTHE      N/A     47  29  49 CALM      30.09R
MOBERLY        PTCLDY    45  25  45 W3        30.06S
KIRKSVILLE     CLOUDY    43  27  53 N8        30.07R

$$

MOZ041-047>049-056>058-063>065-088>090-097-270200-
...EASTERN AND SOUTHERN MISSOURI...

CITY           SKY/WX    TMP DP  RH WIND       PRES   REMARKS
ST. LOUIS INTL PTCLDY    45  26  47 NW6       30.06R
SPIRIT OF STL  PTCLDY    44  29  55 W5        30.06R
COLUMBIA       CLEAR     43  28  55 NW7       30.07R
JEFFERSON CITY CLEAR     46  28  49 NW5       30.08R
MEXICO         CLEAR     45  34  65 NW3       30.06S
HANNIBAL       CLEAR     45  21  39 CALM      30.06S
ROLLA          CLEAR     42  29  59 MISG      30.05R
LEBANON        CLEAR     45  28  53 CALM      30.07S
OSAGE BEACH    CLEAR     45  27  49 N3        30.08R
SPRINGFIELD    CLEAR     46  26  45 NW3       30.07S
BRANSON        PTCLDY    46  28  49 NW7       30.08R
NEVADA         CLEAR     45  28  53 CALM      30.08F
JOPLIN         CLEAR     47  29  49 CALM      30.09S
WEST PLAINS    CLEAR     45  25  45 MISG      30.06R

$$

IAZ060-094-KSZ022-034>040-054-083-096-NEZ052-066-093-270200-
...KANSAS...SOUTHEAST NEBRASKA AND IOWA...

CITY           SKY/WX    TMP DP  RH WIND       PRES   REMARKS
TOPEKA         CLOUDY    50  30  46 NE7       30.07S
MANHATTAN      CLOUDY    50  33  52 NE7       30.05R
EMPORIA        CLOUDY    49  32  52 SW3       30.04S
CHANUTE        PTCLDY    48  29  47 SE6       30.06F
WICHITA        MOCLDY    53  33  46 S12       30.01F
OMAHA          LGT RAIN  35  33  92 N8        30.17R WCI  29
LINCOLN        LGT SNOW  34  33  96 NE9       30.17R FOG     WCI  27
FALLS CITY     LGT RAIN  40  35  83 N16       30.13R WCI  31
LAMONI         CLOUDY    42  26  53 N12       30.09R
DES MOINES     CLOUDY    40  24  53 N14       30.12R WCI  32

$$




USA.gov is the U.S. government's official web portal to all federal, state and local government web resources and services.